Regional Weather Roundup
Issued by NWS

Home | Current Version | Previous Version | Text Only | Print | Product List | Glossary Off
Versions: 1 2 3 4 5 6 7 8 9 10 11 12 13 14 15 16 17 18 19 20 21 22 23 24 25 26 27 28 29 30 31 32 33 34 35 36 37 38 39 40 41 42 43 44 45 46 47 48 49 50

000
ASUS43 KLSX 250459
RWRMO

WEATHER SUMMARY FOR MISSOURI
NATIONAL WEATHER SERVICE SPRINGFIELD MO
1200 AM CDT FRI JUL 25 2014

NOTE: "FAIR" INDICATES FEW OR NO CLOUDS BELOW 12,000 FEET WITH NO
       SIGNIFICANT WEATHER AND/OR OBSTRUCTIONS TO VISIBILITY.
       CURRENT SKY AND/OR WEATHER CONDITIONS ARE NOT AVAILABLE FOR
       CHILLICOTHE AND FARMINGTON.

MOZ001>031-035>038-043-044-053-054-250600-
...NORTHERN AND WESTERN MISSOURI...

CITY           SKY/WX    TMP DP  RH WIND       PRES   REMARKS
KANSAS CTY INT CLEAR     69  60  73 S9        29.96F
KANSAS C DTWN  CLEAR     76  58  53 S7        29.95F
LEE`S SUMMIT   CLEAR     71  59  65 S7        29.98F
ST JOSEPH      CLEAR     72  61  68 S9        29.95F
CHILLICOTHE      N/A     70  58  65 S8        29.97F
KIRKSVILLE     CLEAR     64  58  80 SE9       30.00R

$$
MOZ066>068-077>081-088>096-101>105-250600-
...SOUTHWEST MISSOURI...

CITY           SKY/WX    TMP DP  RH WIND       PRES   REMARKS
SPRINGFIELD    CLEAR     69  59  70 SE6       30.05S
JOPLIN         CLEAR     74  62  66 SE6       30.03S

$$
MOZ032>034-039>042-045>050-055>058-069>072-250600-
...CENTRAL MISSOURI...

CITY           SKY/WX    TMP DP  RH WIND       PRES   REMARKS
COLUMBIA       CLEAR     64  57  78 SE7       30.02F
JEFFERSON CITY CLEAR     65  56  72 SE7       30.01F
ROLLA          CLEAR     65  53  65 E9        30.04S
SEDALIA        CLEAR     66  57  72 SE6       30.01F
OSAGE BEACH    CLEAR     66  54  63 S5        30.02F

$$
MOZ051-052-059>065-250600-
...EAST CENTRAL MISSOURI...

CITY           SKY/WX    TMP DP  RH WIND       PRES   REMARKS
ST LOUIS INTL  CLEAR     68  55  63 SE3       30.04F
SPIRIT OF STL  CLEAR     62  55  77 CALM      30.03F
ST CHARLES     CLEAR     62  57  83 CALM      30.02F

$$
MOZ072>076-082>087-097>100-106>115-250600-
...SOUTH CENTRAL AND SOUTHEAST MISSOURI...

CITY           SKY/WX    TMP DP  RH WIND       PRES   REMARKS
CAPE GIRARDEAU CLEAR     61  60  97 CALM      30.05S
FARMINGTON     CLEAR     59  55  88 CALM      30.07F
POPLAR BLUFF   CLEAR     63  60  90 CALM      30.04S
WEST PLAINS    CLEAR     63  56  78 NE3       30.10R

$$


USA.gov is the U.S. government's official web portal to all federal, state and local government web resources and services.